Time,TemperatureF,DewpointF,PressureIn,WindDirection,WindDirectionDegrees,WindSpeedMPH,WindSpeedGustMPH,Humidity,HourlyPrecipIn,Conditions,Clouds,dailyrainin,SoftwareType,DateUTC
2013-03-29 00:32:00,38.0,32.0,-100.00,NE,40,3.0,-999.0,78,-99.99,,,-99.99,,2013-03-29 06:32:00,
2013-03-29 00:42:00,38.0,32.0,-100.00,NE,40,3.0,-999.0,78,-99.99,,,-99.99,,2013-03-29 06:42:00,
2013-03-29 00:52:00,38.0,32.0,-100.00,NE,40,3.0,-999.0,78,-99.99,,,-99.99,,2013-03-29 06:52:00,
2013-03-29 01:32:00,35.0,32.0,-100.00,NNE,20,3.0,-999.0,88,-99.99,,,-99.99,,2013-03-29 07:32:00,
2013-03-29 01:42:00,35.0,32.0,-100.00,NNE,20,3.0,-999.0,88,-99.99,,,-99.99,,2013-03-29 07:42:00,
2013-03-29 01:52:00,35.0,32.0,-100.00,NNE,20,3.0,-999.0,88,-99.99,,,-99.99,,2013-03-29 07:52:00,
2013-03-29 02:32:00,34.0,30.0,-100.00,North,0,0.0,-999.0,85,-99.99,,,-99.99,,2013-03-29 08:32:00,
2013-03-29 02:42:00,34.0,30.0,-100.00,North,0,0.0,-999.0,85,-99.99,,,-99.99,,2013-03-29 08:42:00,
2013-03-29 02:52:00,34.0,30.0,-100.00,North,0,0.0,-999.0,85,-99.99,,,-99.99,,2013-03-29 08:52:00,
2013-03-29 03:33:00,36.0,32.0,-100.00,SSE,150,1.0,-999.0,85,-99.99,,,-99.99,,2013-03-29 09:33:00,
2013-03-29 03:42:00,36.0,32.0,-100.00,SSE,150,1.0,-999.0,85,-99.99,,,-99.99,,2013-03-29 09:42:00,
2013-03-29 03:52:00,36.0,32.0,-100.00,SSE,150,1.0,-999.0,85,-99.99,,,-99.99,,2013-03-29 09:52:00,
2013-03-29 04:33:00,38.0,33.0,-100.00,NNW,340,2.0,-999.0,82,-99.99,,,-99.99,,2013-03-29 10:33:00,
2013-03-29 04:42:00,38.0,33.0,-100.00,NNW,340,2.0,-999.0,82,-99.99,,,-99.99,,2013-03-29 10:42:00,
2013-03-29 04:52:00,38.0,33.0,-100.00,NNW,340,2.0,-999.0,82,-99.99,,,-99.99,,2013-03-29 10:52:00,
2013-03-29 05:33:00,40.0,35.0,-100.00,SE,130,3.0,-999.0,82,-99.99,,,-99.99,,2013-03-29 11:33:00,
2013-03-29 05:42:00,40.0,35.0,-100.00,SE,130,3.0,-999.0,82,-99.99,,,-99.99,,2013-03-29 11:42:00,
2013-03-29 05:52:00,40.0,35.0,-100.00,SE,130,3.0,-999.0,82,-99.99,,,-99.99,,2013-03-29 11:52:00,
2013-03-29 06:32:00,37.0,33.0,-100.00,NE,40,1.0,-999.0,85,-99.99,,,-99.99,,2013-03-29 12:32:00,
2013-03-29 06:42:00,37.0,33.0,-100.00,NE,40,1.0,-999.0,85,-99.99,,,-99.99,,2013-03-29 12:42:00,
2013-03-29 06:52:00,37.0,33.0,-100.00,NE,40,1.0,-999.0,85,-99.99,,,-99.99,,2013-03-29 12:52:00,
2013-03-29 07:32:00,35.0,30.0,-100.00,NW,320,7.0,-999.0,81,-99.99,,,-99.99,,2013-03-29 13:32:00,
2013-03-29 07:42:00,35.0,30.0,-100.00,NW,320,7.0,-999.0,81,-99.99,,,-99.99,,2013-03-29 13:42:00,
2013-03-29 07:52:00,35.0,30.0,-100.00,NW,320,7.0,-999.0,81,-99.99,,,-99.99,,2013-03-29 13:52:00,
2013-03-29 08:32:00,32.0,30.0,-100.00,North,350,5.0,-999.0,92,-99.99,,,-99.99,,2013-03-29 14:32:00,
2013-03-29 08:42:00,32.0,30.0,-100.00,North,350,5.0,-999.0,92,-99.99,,,-99.99,,2013-03-29 14:42:00,
2013-03-29 08:52:00,32.0,30.0,-100.00,North,350,5.0,-999.0,92,-99.99,,,-99.99,,2013-03-29 14:52:00,
2013-03-29 09:33:00,34.0,30.0,-100.00,NE,40,3.0,-999.0,85,-99.99,,,-99.99,,2013-03-29 15:33:00,
2013-03-29 09:43:00,34.0,30.0,-100.00,NE,40,3.0,-999.0,85,-99.99,,,-99.99,,2013-03-29 15:43:00,
2013-03-29 09:52:00,34.0,30.0,-100.00,NE,40,3.0,-999.0,85,-99.99,,,-99.99,,2013-03-29 15:52:00,
2013-03-29 10:33:00,38.0,32.0,-100.00,North,0,0.0,-999.0,78,-99.99,,,-99.99,,2013-03-29 16:33:00,
2013-03-29 10:42:00,38.0,32.0,-100.00,North,0,0.0,-999.0,78,-99.99,,,-99.99,,2013-03-29 16:42:00,
2013-03-29 10:52:00,38.0,32.0,-100.00,North,0,0.0,-999.0,78,-99.99,,,-99.99,,2013-03-29 16:52:00,
2013-03-29 11:33:00,47.0,35.0,-100.00,WNW,300,2.0,-999.0,63,-99.99,,,-99.99,,2013-03-29 17:33:00,
2013-03-29 11:43:00,47.0,35.0,-100.00,WNW,300,2.0,-999.0,63,-99.99,,,-99.99,,2013-03-29 17:43:00,
2013-03-29 11:52:00,47.0,35.0,-100.00,WNW,300,2.0,-999.0,63,-99.99,,,-99.99,,2013-03-29 17:52:00,
2013-03-29 12:32:00,49.0,36.0,-100.00,SSE,160,3.0,-999.0,60,-99.99,,,-99.99,,2013-03-29 18:32:00,
2013-03-29 12:42:00,49.0,36.0,-100.00,SSE,160,3.0,-999.0,60,-99.99,,,-99.99,,2013-03-29 18:42:00,
2013-03-29 12:52:00,49.0,36.0,-100.00,SSE,160,3.0,-999.0,60,-99.99,,,-99.99,,2013-03-29 18:52:00,
2013-03-29 13:32:00,54.0,36.0,-100.00,North,0,0.0,-999.0,50,-99.99,,,-99.99,,2013-03-29 19:32:00,
2013-03-29 13:42:00,54.0,36.0,-100.00,North,0,0.0,-999.0,50,-99.99,,,-99.99,,2013-03-29 19:42:00,
2013-03-29 13:52:00,54.0,36.0,-100.00,North,0,0.0,-999.0,50,-99.99,,,-99.99,,2013-03-29 19:52:00,
2013-03-29 14:33:00,55.0,35.0,-100.00,SE,140,3.0,-999.0,46,-99.99,,,-99.99,,2013-03-29 20:33:00,
2013-03-29 14:42:00,55.0,35.0,-100.00,SE,140,3.0,-999.0,46,-99.99,,,-99.99,,2013-03-29 20:42:00,
2013-03-29 14:52:00,55.0,35.0,-100.00,SE,140,3.0,-999.0,46,-99.99,,,-99.99,,2013-03-29 20:52:00,
2013-03-29 15:33:00,57.0,36.0,-100.00,SSE,150,6.0,-999.0,45,-99.99,,,-99.99,,2013-03-29 21:33:00,
2013-03-29 15:42:00,57.0,36.0,-100.00,SSE,150,6.0,-999.0,45,-99.99,,,-99.99,,2013-03-29 21:42:00,
2013-03-29 15:53:00,57.0,36.0,-100.00,SSE,150,6.0,-999.0,45,-99.99,,,-99.99,,2013-03-29 21:53:00,
2013-03-29 16:33:00,61.0,28.0,-100.00,NNW,340,8.0,-999.0,28,-99.99,,,-99.99,,2013-03-29 22:33:00,
2013-03-29 16:42:00,61.0,28.0,-100.00,NNW,340,8.0,-999.0,28,-99.99,,,-99.99,,2013-03-29 22:42:00,
2013-03-29 16:52:00,61.0,28.0,-100.00,NNW,340,8.0,-999.0,28,-99.99,,,-99.99,,2013-03-29 22:52:00,
2013-03-29 17:32:00,60.0,30.0,-100.00,NNW,330,6.0,-999.0,31,-99.99,,,-99.99,,2013-03-29 23:32:00,
2013-03-29 17:42:00,60.0,30.0,-100.00,NNW,330,6.0,-999.0,31,-99.99,,,-99.99,,2013-03-29 23:42:00,
2013-03-29 17:52:00,60.0,30.0,-100.00,NNW,330,6.0,-999.0,31,-99.99,,,-99.99,,2013-03-29 23:52:00,
2013-03-29 18:32:00,58.0,29.0,-100.00,NNW,340,7.0,-999.0,32,-99.99,,,-99.99,,2013-03-30 00:32:00,
2013-03-29 18:42:00,58.0,29.0,-100.00,NNW,340,7.0,-999.0,32,-99.99,,,-99.99,,2013-03-30 00:42:00,
2013-03-29 18:52:00,58.0,29.0,-100.00,NNW,340,7.0,-999.0,32,-99.99,,,-99.99,,2013-03-30 00:52:00,
2013-03-29 19:33:00,55.0,35.0,-100.00,NNW,330,5.0,-999.0,46,-99.99,,,-99.99,,2013-03-30 01:33:00,
2013-03-29 19:43:00,55.0,35.0,-100.00,NNW,330,5.0,-999.0,46,-99.99,,,-99.99,,2013-03-30 01:43:00,
2013-03-29 19:52:00,55.0,35.0,-100.00,NNW,330,5.0,-999.0,46,-99.99,,,-99.99,,2013-03-30 01:52:00,
2013-03-29 20:32:00,48.0,38.0,-100.00,NNW,340,7.0,-999.0,67,-99.99,,,-99.99,,2013-03-30 02:32:00,
2013-03-29 20:42:00,48.0,38.0,-100.00,NNW,340,7.0,-999.0,67,-99.99,,,-99.99,,2013-03-30 02:42:00,
2013-03-29 20:52:00,48.0,38.0,-100.00,NNW,340,7.0,-999.0,67,-99.99,,,-99.99,,2013-03-30 02:52:00,
2013-03-29 21:33:00,46.0,39.0,-100.00,North,10,3.0,-999.0,76,-99.99,,,-99.99,,2013-03-30 03:33:00,
2013-03-29 21:43:00,46.0,39.0,-100.00,North,10,3.0,-999.0,76,-99.99,,,-99.99,,2013-03-30 03:43:00,
2013-03-29 21:53:00,46.0,39.0,-100.00,North,10,3.0,-999.0,76,-99.99,,,-99.99,,2013-03-30 03:53:00,
2013-03-29 22:32:00,42.0,36.0,-100.00,NNE,30,3.0,-999.0,78,-99.99,,,-99.99,,2013-03-30 04:32:00,
2013-03-29 22:43:00,42.0,36.0,-100.00,NNE,30,3.0,-999.0,78,-99.99,,,-99.99,,2013-03-30 04:43:00,
2013-03-29 22:52:00,42.0,36.0,-100.00,NNE,30,3.0,-999.0,78,-99.99,,,-99.99,,2013-03-30 04:52:00,
2013-03-29 23:32:00,41.0,36.0,-100.00,WSW,240,2.0,-999.0,82,-99.99,,,-99.99,,2013-03-30 05:32:00,
2013-03-29 23:42:00,41.0,36.0,-100.00,WSW,240,2.0,-999.0,82,-99.99,,,-99.99,,2013-03-30 05:42:00,
2013-03-29 23:52:00,41.0,36.0,-100.00,WSW,240,2.0,-999.0,82,-99.99,,,-99.99,,2013-03-30 05:52:00,